カタログに戻る

BREEZE-M DEB

TANK

運用中HEO
NORAD 32488·DEBRIS·🇷🇺 Russia

打ち上げ Feb 11, 2008 から Baikonur Cosmodrome

Loading…

次のパス (今後24時間)

TLE

最新Source: Space-Track

元期: Sep 14, 2026, 09:05 UTC

1 32488U 08006B   26257.37896426 -.00000099  00000-0  90697-3 0  9999
2 32488  48.5265 151.7345 7160756  31.3208 356.3118  2.21552329150163

AllMySatでBREEZE-M DEBをリアルタイム追跡

Download on the App Store